Council Bluffs, IA

1:29 AM CDT on April 24, 2017 (GMT -0500)
Council Bluffs Municipal

Weather History for KCBF - November, 2012

Change the Weather History Date:

Sunday, November 18, 2012

  Actual Average Record
Temperature  
Mean Temperature 50 °F -  
Max Temperature 59 °F 46 °F 73 °F (1999)
Min Temperature 41 °F 29 °F 8 °F (2014)
Degree Days  
Heating Degree Days 15    
Moisture  
Dew Point 32 °F    
Average Humidity 49    
Maximum Humidity 66    
Minimum Humidity 34    
Precipitation  
Precipitation 0.00 in - - ()
Sea Level Pressure  
Sea Level Pressure 30.10 in    
Wind  
Wind Speed 14 mph (SSE)    
Max Wind Speed 22 mph    
Max Gust Speed 30 mph    
Visibility 10 miles    
Events Rain    
Averages and records for this station are not official NWS values.
T = Trace of Precipitation, MM = Missing Value Source: NWS Daily Summary

Daily Weather History Graph

Daily Weather History Graph

Search for Another Location

Airport or City:

Trip Planner

Search our weather history database for the weather conditions in past years. The results will help you decide how hot, cold, wet, or windy it might be!

Date:

Astronomy

Nov. 18, 2012 Rise Set
Actual Time 7:15 AM CST 5:00 PM CST
Civil Twilight 6:45 AM CST 5:30 PM CST
Nautical Twilight 6:11 AM CST 6:04 PM CST
Astronomical Twilight 5:39 AM CST 6:37 PM CST
Moon 11:42 AM CST (11/18) 10:22 PM CST (11/18)
Length of Visible Light 10h 45m
Length of Day
9h 45m
Waxing Crescent, 30% of the Moon is Illuminated
Nov 18
Waxing Crescent
Nov 20
First Quarter
Nov 28
Full
Dec 6
Last Quarter
Dec 13
New

Hourly Weather History & Observations

Time (CST) Temp. Windchill Dew Point Humidity Pressure Visibility Wind Dir Wind Speed Gust Speed Precip Events Conditions
12:15 AM 51.8 °F - 26.6 °F 38% 30.17 in 10.0 mi South 16.1 mph - N/A   Overcast
12:35 AM 51.8 °F - 24.8 °F 35% 30.17 in 10.0 mi South 16.1 mph 21.9 mph N/A   Overcast
12:55 AM 51.8 °F - 24.8 °F 35% 30.17 in 10.0 mi South 15.0 mph 21.9 mph N/A   Overcast
1:15 AM 50.0 °F - 28.4 °F 43% 30.17 in 10.0 mi SSE 12.7 mph 21.9 mph N/A   Overcast
1:55 AM 46.4 °F 40.7 °F 30.2 °F 53% 30.16 in 10.0 mi SSE 12.7 mph - N/A   Overcast
2:15 AM 46.4 °F 41.9 °F 30.2 °F 53% 30.16 in 10.0 mi SSE 9.2 mph - N/A   Overcast
2:35 AM 44.6 °F 38.8 °F 30.2 °F 57% 30.16 in 10.0 mi SE 11.5 mph - N/A   Overcast
2:55 AM 44.6 °F 38.8 °F 28.4 °F 53% 30.16 in 10.0 mi SSE 11.5 mph - N/A   Mostly Cloudy
3:15 AM 42.8 °F 36.6 °F 28.4 °F 57% 30.16 in 10.0 mi SSE 11.5 mph - N/A   Partly Cloudy
3:35 AM 42.8 °F 36.6 °F 28.4 °F 57% 30.16 in 10.0 mi SSE 11.5 mph - N/A   Clear
3:55 AM 42.8 °F 36.6 °F 28.4 °F 57% 30.15 in 10.0 mi SSE 11.5 mph - N/A   Partly Cloudy
4:15 AM 42.8 °F 37.0 °F 30.2 °F 61% 30.15 in 10.0 mi SSE 10.4 mph - N/A   Clear
4:35 AM 42.8 °F 36.6 °F 30.2 °F 61% 30.14 in 10.0 mi SSE 11.5 mph - N/A   Clear
4:55 AM 42.8 °F 37.0 °F 30.2 °F 61% 30.15 in 10.0 mi SSE 10.4 mph - N/A   Clear
5:15 AM 41.0 °F 35.2 °F 30.2 °F 65% 30.15 in 10.0 mi SSE 9.2 mph - N/A   Clear
5:35 AM 41.0 °F 34.7 °F 30.2 °F 65% 30.14 in 10.0 mi SSE 10.4 mph - N/A   Clear
5:55 AM 41.0 °F 34.7 °F 30.2 °F 65% 30.13 in 10.0 mi SE 10.4 mph - N/A   Clear
6:15 AM 41.0 °F 35.2 °F 30.2 °F 65% 30.14 in 10.0 mi SE 9.2 mph - N/A   Clear
6:35 AM 41.0 °F 34.3 °F 30.2 °F 65% 30.14 in 10.0 mi SSE 11.5 mph - N/A   Partly Cloudy
6:55 AM 42.8 °F 36.6 °F 30.2 °F 61% 30.14 in 10.0 mi SSE 11.5 mph - N/A   Clear
7:15 AM 42.8 °F 36.6 °F 30.2 °F 61% 30.14 in 10.0 mi SSE 11.5 mph - N/A   Clear
7:35 AM 42.8 °F 36.2 °F 30.2 °F 61% 30.14 in 10.0 mi SSE 12.7 mph - N/A   Clear
7:55 AM 42.8 °F 36.2 °F 30.2 °F 61% 30.14 in 10.0 mi SSE 12.7 mph - N/A   Clear
8:15 AM 44.6 °F 39.2 °F 30.2 °F 57% 30.14 in 10.0 mi SSE 10.4 mph - N/A   Clear
8:35 AM 44.6 °F 38.4 °F 30.2 °F 57% 30.14 in 10.0 mi SSE 12.7 mph - N/A   Clear
8:55 AM 46.4 °F 40.7 °F 30.2 °F 53% 30.14 in 10.0 mi South 12.7 mph - N/A   Clear
9:15 AM 48.2 °F - 30.2 °F 50% 30.14 in 10.0 mi South 11.5 mph 18.4 mph N/A   Clear
9:35 AM 50.0 °F - 30.2 °F 47% 30.14 in 10.0 mi South 13.8 mph 20.7 mph N/A   Clear
9:55 AM 51.8 °F - 28.4 °F 41% 30.14 in 10.0 mi South 16.1 mph 23.0 mph N/A   Clear
10:15 AM 53.6 °F - 30.2 °F 41% 30.13 in 10.0 mi SSW 17.3 mph 24.2 mph N/A   Clear
10:35 AM 51.8 °F - 28.4 °F 41% 30.13 in 10.0 mi South 16.1 mph 24.2 mph N/A   Clear
10:55 AM 53.6 °F - 30.2 °F 41% 30.13 in 10.0 mi South 16.1 mph - N/A   Clear
11:15 AM 53.6 °F - 30.2 °F 41% 30.12 in 10.0 mi South 16.1 mph - N/A   Clear
11:35 AM 55.4 °F - 30.2 °F 38% 30.12 in 10.0 mi South 15.0 mph 21.9 mph N/A   Clear
11:55 AM 59.0 °F - 30.2 °F 34% 30.10 in 10.0 mi South 17.3 mph - N/A   Clear
12:15 PM 59.0 °F - 32.0 °F 36% 30.09 in 10.0 mi South 15.0 mph 21.9 mph N/A   Clear
12:35 PM 59.0 °F - 32.0 °F 36% 30.08 in 10.0 mi South 18.4 mph - N/A   Clear
12:55 PM 59.0 °F - 32.0 °F 36% 30.08 in 10.0 mi South 13.8 mph - N/A   Clear
1:15 PM 59.0 °F - 32.0 °F 36% 30.07 in 10.0 mi SSE 17.3 mph - N/A   Clear
1:35 PM 57.2 °F - 32.0 °F 38% 30.07 in 10.0 mi SSE 12.7 mph 21.9 mph N/A   Clear
1:55 PM 57.2 °F - 32.0 °F 38% 30.06 in 10.0 mi SSE 13.8 mph - N/A   Clear
2:15 PM 57.2 °F - 33.8 °F 41% 30.06 in 10.0 mi SSE 12.7 mph - N/A   Clear
2:35 PM 57.2 °F - 33.8 °F 41% 30.06 in 10.0 mi SSE 13.8 mph 20.7 mph N/A   Clear
2:55 PM 57.2 °F - 33.8 °F 41% 30.05 in 10.0 mi South 13.8 mph 19.6 mph N/A   Clear
3:15 PM 57.2 °F - 33.8 °F 41% 30.05 in 10.0 mi SSE 10.4 mph - N/A   Clear
3:35 PM 57.2 °F - 33.8 °F 41% 30.04 in 10.0 mi SE 11.5 mph - N/A   Clear
3:55 PM 57.2 °F - 33.8 °F 41% 30.05 in 10.0 mi SE 11.5 mph - N/A   Clear
4:15 PM 57.2 °F - 35.6 °F 44% 30.06 in 10.0 mi SSE 12.7 mph - N/A   Clear
4:35 PM 59.0 °F - 33.8 °F 39% 30.06 in 10.0 mi SSE 19.6 mph - N/A   Clear
4:55 PM 57.2 °F - 33.8 °F 41% 30.06 in 10.0 mi SSE 13.8 mph 19.6 mph N/A   Scattered Clouds
5:15 PM 57.2 °F - 33.8 °F 41% 30.06 in 10.0 mi South 17.3 mph - N/A   Mostly Cloudy
5:35 PM 57.2 °F - 33.8 °F 41% 30.06 in 10.0 mi SSE 15.0 mph - N/A   Partly Cloudy
5:55 PM 57.2 °F - 33.8 °F 41% 30.05 in 10.0 mi SSE 19.6 mph 25.3 mph N/A   Scattered Clouds
6:15 PM 55.4 °F - 33.8 °F 44% 30.06 in 10.0 mi SSE 18.4 mph 26.5 mph N/A   Mostly Cloudy
6:35 PM 55.4 °F - 33.8 °F 44% 30.06 in 10.0 mi SSE 21.9 mph 27.6 mph N/A   Mostly Cloudy
6:55 PM 55.4 °F - 33.8 °F 44% 30.06 in 10.0 mi SSE 20.7 mph 27.6 mph N/A   Scattered Clouds
7:15 PM 55.4 °F - 35.6 °F 47% 30.06 in 10.0 mi SSE 19.6 mph 29.9 mph N/A   Scattered Clouds
7:35 PM 55.4 °F - 35.6 °F 47% 30.06 in 10.0 mi SSE 18.4 mph - N/A   Scattered Clouds
7:55 PM 55.4 °F - 35.6 °F 47% 30.06 in 9.0 mi South 17.3 mph - N/A   Mostly Cloudy
8:15 PM 51.8 °F - 39.2 °F 62% 30.06 in 9.0 mi South 11.5 mph 18.4 mph N/A Rain Light Rain
8:35 PM 51.8 °F - 39.2 °F 62% 30.06 in 10.0 mi South 11.5 mph - N/A   Overcast
8:55 PM 53.6 °F - 37.4 °F 54% 30.07 in 10.0 mi South 15.0 mph 21.9 mph N/A   Overcast
9:15 PM 53.6 °F - 37.4 °F 54% 30.07 in 10.0 mi South 17.3 mph - N/A   Overcast
9:35 PM 53.6 °F - 37.4 °F 54% 30.06 in 10.0 mi South 19.6 mph - N/A   Overcast
9:55 PM 53.6 °F - 37.4 °F 54% 30.07 in 10.0 mi South 17.3 mph 24.2 mph N/A   Overcast
10:35 PM 51.8 °F - 39.2 °F 62% 30.06 in 10.0 mi SSE 16.1 mph - N/A   Mostly Cloudy
11:15 PM 50.0 °F - 37.4 °F 62% 30.05 in 10.0 mi SSE 13.8 mph - N/A   Scattered Clouds
11:55 PM 48.2 °F - 37.4 °F 66% 30.05 in 10.0 mi SSE 11.5 mph - N/A   Clear